Hourly Data Report for October 04, 2017

All times are specified in Local Standard Time (LST). Add 1 hour to adjust for Daylight Saving Time where and when it is observed.

SHEARWATER RCS
NOVA SCOTIA

44°37'47.000" N
63°30'48.000" W
24.00 m
8205092
71264
AAW

Download Data

Hourly Data (October 2017)
Hourly Data Report for October 4, 2017
Temp Definition
°C
Dew Point Temp Definition
°C
Rel Hum Definition
%
Wind Dir Definition
10's deg

Wind Spd Definition
km/h
Visibility Definition
km
Stn Press Definition
kPa
Hmdx Definition


Wind Chill Definition


Weather Definition


TIME
00:00 8.4 4.6 77 27 4   102.84     LegendNANA
01:00 8.6 5.4 81 24 8   102.78     LegendNANA
02:00 8.6 5.9 83 23 8   102.72     LegendNANA
03:00 9.2 7.0 86 25 5   102.66     LegendNANA
04:00 10.0 7.5 85 25 9   102.60     LegendNANA
05:00 10.5 7.3 80 25 14   102.52     LegendNANA
06:00 10.6 7.3 80 25 14   102.45     LegendNANA
07:00 11.1 7.8 80 25 14   102.41     LegendNANA
08:00 12.4 8.2 76 26 15   102.36     LegendNANA
09:00 14.1 9.2 72 26 17   102.31     LegendNANA
10:00 15.5 9.8 69 25 16   102.20     LegendNANA
11:00 17.1 10.9 67 23 17   102.12     LegendNANA
12:00 18.3 11.6 65 23 17   102.02     LegendNANA
13:00 19.0 11.5 61 24 20   101.88     LegendNANA
14:00 19.7 11.8 60 24 19   101.79     LegendNANA
15:00 18.9 12.9 68 21 17   101.72     LegendNANA
16:00 20.0 12.4 62 22 18   101.65     LegendNANA
17:00 19.2 12.0 63 23 13   101.63     LegendNANA
18:00 16.7 12.5 77 22 14   101.57     LegendNANA
19:00 15.8 12.2 79 24 11   101.52     LegendNANA
20:00 15.1 11.6 79 23 11   101.51     LegendNANA
21:00 14.3 11.8 85 23 12   101.46     LegendNANA
22:00 13.7 11.5 86 23 17   101.44     LegendNANA
23:00 13.3 11.3 87 23 13   101.35     LegendNANA

Notes on Data Quality.

Legend

  • E = Estimated
  • M = Missing
  • NA = Not Available
  • ‡ = Partner data that is not subject to review by the National Climate Archives
Date modified: